Probability
1 1 2 2 1 0 2 6 11 16 19 17 13 10 9 7 4 1 0 0 0 0 0 0 0 0 0 0 0 0 0 0 0 0 0 0 0 0 0 0 0 0 0
2 1 2 1 0 0 2 6 10 15 18 15 11 10 9 7 4 1 0 0 0 0 0 0 0 0 0 0 0 0 0 0 0 0 0 0 0 0 0 0 0 0 0
2 2 2 1 1 1 3 7 9 13 15 13 10 9 9 8 4 1 0 0 0 0 0 0 0 0 0 0 0 0 0 0 0 0 0 0 0 0 0 0 0 0 0
1 2 3 2 2 2 5 9 9 10 13 12 9 8 8 7 4 1 0 0 0 0 0 0 0 0 0 0 0 0 0 0 0 0 0 0 0 0 0 0 0 0 0
1 2 2 2 1 3 7 9 8 8 10 10 7 6 5 5 3 1 0 0 0 0 0 0 0 0 0 0 0 0 0 0 0 0 0 0 0 0 0 0 0 0 0
2 2 1 1 1 4 8 8 7 6 7 7 5 4 2 2 1 1 1 0 0 0 0 0 0 0 0 0 0 0 0 0 0 0 0 0 0 0 0 0 0 0 0
1 1 1 2 3 4 7 8 7 6 5 4 4 3 1 1 1 1 1 0 0 0 0 0 0 0 0 0 0 0 0 0 0 0 0 0 0 0 0 0 0 0 0
0 0 1 2 3 4 5 6 7 5 4 3 3 3 2 1 0 1 1 0 0 0 0 0 0 0 0 0 0 0 0 0 0 0 0 0 0 0 0 0 0 0 0
0 0 0 1 1 3 4 4 4 5 4 3 2 2 2 1 0 0 0 0 0 0 0 0 0 0 0 0 0 0 0 0 0 0 0 0 0 0 0 0 0 0 0
0 0 0 0 1 2 2 1 1 3 3 3 2 2 2 2 1 0 0 0 0 0 0 0 0 0 0 0 0 0 0 0 0 0 0 0 0 0 0 0 0 0 0
0 0 0 0 0 1 1 1 0 1 2 3 3 2 2 2 2 1 0 0 0 0 0 0 0 0 0 0 0 0 0 0 0 0 0 0 0 0 0 0 0 0 0
0 0 0 0 0 0 0 0 0 0 1 2 3 3 1 1 1 1 0 1 1 1 0 0 0 0 0 0 0 0 0 0 0 0 0 0 0 0 0 0 0 0 0
0 0 0 0 0 0 0 0 0 0 1 2 3 3 2 1 0 0 1 2 2 2 1 0 0 0 0 0 0 0 0 0 0 0 0 0 0 0 0 0 0 0 0
0 0 0 0 0 0 0 0 0 1 2 2 3 4 3 1 0 0 1 3 4 3 2 1 0 0 0 0 0 0 0 0 0 0 0 0 0 0 0 0 0 0 0
0 0 0 0 0 0 0 0 0 1 2 2 2 2 2 2 1 0 1 4 6 4 3 2 1 1 0 0 0 0 0 0 0 0 0 0 0 0 0 0 0 0 0
0 0 0 0 0 0 0 0 0 0 1 1 1 1 1 1 2 1 2 5 7 6 4 3 3 2 1 0 0 0 0 0 0 0 0 0 0 0 0 0 0 0 0
0 0 0 0 0 0 0 0 0 0 0 0 0 0 0 1 2 2 2 4 7 7 5 3 3 2 1 0 0 0 0 0 0 0 0 0 0 0 0 0 0 0 0
0 0 0 0 0 0 0 0 0 0 0 0 0 0 0 0 1 3 4 4 5 7 6 4 3 2 1 0 0 0 0 0 0 0 0 0 0 0 0 0 0 0 0
0 0 0 0 0 0 0 0 0 0 0 0 0 0 0 0 2 4 5 4 4 6 6 5 3 1 0 0 0 0 0 0 0 0 0 0 0 0 0 0 0 0 0
0 0 0 0 0 0 0 0 0 0 0 0 0 0 1 1 2 4 4 4 3 4 5 4 2 1 0 0 0 0 0 0 0 0 0 0 0 0 0 0 0 0 0
0 0 0 0 0 0 0 0 0 0 0 0 0 0 0 0 1 3 4 4 3 3 2 1 1 0 0 0 0 0 0 0 0 0 0 0 0 0 0 0 0 0 0
0 0 0 0 0 0 0 0 0 0 0 0 0 0 0 1 1 3 4 3 3 1 1 0 0 0 0 0 0 0 0 0 0 0 0 0 0 0 0 0 0 0 0
0 0 0 0 0 0 0 0 0 0 0 0 0 0 1 2 3 3 3 3 2 1 0 0 0 0 0 0 0 0 0 0 0 0 0 0 0 0 0 0 0 0 0
0 0 0 0 0 0 0 0 0 0 0 0 0 0 2 3 3 3 2 1 1 0 0 0 0 0 0 0 0 0 0 0 0 0 0 0 0 0 0 0 0 0 0
0 0 0 0 0 0 0 0 0 0 0 0 0 0 1 2 2 2 2 0 0 0 0 0 0 0 0 0 0 0 0 0 0 0 0 0 0 0 0 0 0 0 0
0 0 0 0 0 0 0 0 0 0 0 0 0 0 0 1 1 2 2 1 0 0 0 0 0 0 0 0 0 0 0 0 0 0 0 0 0 0 0 0 0 0 0
Wind_Speed
14 13 13 14 14 14 15 16 16 16 14 11 11 11 11 11 11 11 14 15 14 14 12 9 11 10 9 9 10 8 8 6 4 4 3 3 4 4 3 3 3 3 3
11 11 12 13 14 15 16 16 16 16 16 13 11 10 11 11 11 10 13 15 15 15 12 13 11 11 9 11 10 9 7 5 5 4 3 3 5 4 4 3 3 4 3
10 11 11 12 13 15 16 14 16 16 17 16 11 9 9 9 10 12 12 15 16 16 14 14 12 12 11 10 11 11 10 7 6 5 4 3 3 3 4 4 4 4 3
9 9 10 11 13 14 13 15 15 15 16 16 14 15 13 13 13 12 12 14 16 16 16 15 14 13 11 11 12 11 9 9 7 6 4 3 1 2 2 4 4 3 3
8 9 10 11 11 11 11 13 14 15 15 16 17 17 15 13 11 13 15 15 14 16 16 16 14 14 12 12 12 12 11 9 8 6 5 4 3 4 3 3 3 3 3
6 7 7 8 9 9 9 11 14 15 16 17 17 18 18 16 15 17 15 14 12 13 17 16 15 14 12 13 12 12 13 10 10 7 6 5 4 4 4 4 4 3 2
4 5 6 7 8 9 10 11 13 15 16 17 17 19 19 19 19 17 17 15 12 12 17 16 15 14 14 13 12 12 12 12 11 9 7 6 5 4 4 4 3 3 2
5 5 6 6 7 8 10 12 13 14 15 17 17 17 19 15 14 17 15 16 13 14 16 18 16 16 15 14 13 11 11 10 11 10 9 6 6 5 4 4 3 4 3
5 6 6 5 6 7 9 12 13 13 14 15 17 17 18 18 17 17 17 14 13 13 17 18 17 16 15 15 14 11 12 11 11 10 10 7 5 5 5 4 4 4 4
7 7 6 6 6 6 7 9 12 13 13 14 14 13 17 18 17 16 17 16 16 15 17 17 17 16 16 15 14 12 12 12 11 8 10 9 6 5 5 4 4 4 4
8 7 7 6 6 5 5 7 9 11 12 13 14 15 16 16 17 16 17 17 16 17 17 17 17 16 16 15 14 13 13 13 12 10 10 10 9 6 5 5 4 4 4
8 8 7 7 6 5 5 6 8 10 11 12 13 14 15 15 16 16 17 17 16 17 17 17 16 16 16 15 15 15 14 14 13 12 11 10 7 8 6 5 5 4 4
9 8 8 6 6 5 5 5 6 8 9 10 11 12 14 15 16 17 16 16 16 15 16 16 16 16 16 15 15 15 14 13 13 12 12 11 10 9 7 6 5 4 3
10 9 8 8 7 6 6 5 6 7 8 9 11 12 14 15 15 15 15 15 15 15 15 16 16 15 15 15 14 14 13 13 11 11 11 10 10 10 9 7 6 5 4
10 9 9 8 8 7 6 6 6 6 7 9 10 11 12 12 12 13 14 15 15 15 15 14 15 15 13 13 15 14 13 12 11 10 9 8 9 9 7 6 6 6 4
11 10 10 9 9 8 7 6 6 6 6 8 9 10 10 11 12 12 13 13 14 14 14 14 14 15 11 15 17 15 13 12 11 10 9 8 9 9 9 8 8 7 6
11 11 10 9 9 8 8 7 6 5 6 7 7 8 9 10 11 11 12 13 14 13 13 14 14 14 14 18 19 17 12 11 11 10 9 7 7 9 8 8 8 6 5
11 11 10 9 9 8 8 7 6 5 5 6 6 7 8 9 10 11 12 12 12 12 12 13 13 13 13 19 20 18 13 10 10 10 10 10 10 9 10 8 7 5 4
11 10 10 10 9 8 7 6 5 4 4 5 6 6 7 8 9 11 11 11 11 11 11 11 12 12 13 19 21 19 11 9 9 9 9 10 10 13 14 10 9 7 5
10 10 10 9 8 7 6 6 5 4 5 5 5 6 7 8 9 10 10 9 9 10 10 10 11 12 12 18 21 19 9 10 8 8 8 11 12 16 15 10 9 8 6
11 11 9 8 8 7 6 6 5 5 5 4 4 5 6 7 8 8 8 9 8 9 9 9 9 10 12 17 21 20 10 10 10 8 7 8 15 16 15 10 7 9 9
12 11 9 9 8 7 6 6 6 5 4 3 4 5 5 5 6 7 8 9 9 10 10 9 8 7 9 13 17 19 15 13 11 9 8 9 17 16 14 9 10 14 10
12 11 11 10 8 6 5 6 6 5 4 3 3 3 4 4 6 7 8 8 9 9 8 8 8 7 7 9 16 18 17 15 9 8 13 16 18 16 11 12 14 11 6
12 11 10 9 8 7 6 6 5 4 3 3 3 3 4 4 5 5 6 7 8 9 9 9 9 8 8 8 9 10 11 13 11 11 14 17 16 11 11 11 9 5 4
12 11 10 9 9 7 6 5 4 3 3 3 3 3 4 5 5 4 4 6 6 8 10 10 10 11 10 11 14 12 10 10 11 12 9 8 8 7 6 6 5 5 5
11 10 10 9 9 7 6 5 4 3 3 3 3 3 3 4 5 5 3 3 4 7 9 10 10 9 11 18 19 18 18 20 22 14 10 9 8 8 8 7 6 5 4
Wind_Direction
241 231 226 221 215 212 209 204 199 193 186 183 183 183 185 181 182 183 183 184 184 185 185 182 183 184 186 185 185 180 180 181 177 186 194 196 206 213 205 211 212 204 211
235 224 220 217 212 210 207 204 200 195 192 190 187 188 187 186 183 181 185 187 187 187 188 189 187 187 188 189 187 184 185 176 189 200 199 201 190 196 210 211 219 225 215
235 224 218 215 212 209 205 202 200 197 195 190 185 184 186 185 185 186 186 189 190 191 190 193 192 191 192 191 190 190 192 185 188 206 213 216 210 172 180 204 214 220 227
243 229 223 218 213 210 205 202 199 197 196 191 190 189 192 191 191 185 185 188 192 193 194 195 195 193 195 195 194 195 196 194 189 194 224 252 277 231 185 182 199 213 230
246 234 228 224 218 211 206 203 199 199 196 196 194 196 201 198 190 185 186 188 191 194 195 196 196 196 197 197 195 194 197 198 198 193 191 203 218 242 247 227 200 201 204
262 253 243 234 227 217 209 206 203 202 198 198 198 201 203 197 191 187 185 187 189 193 197 197 198 198 197 197 195 194 198 200 201 200 197 196 200 208 219 240 245 243 205
292 276 259 241 232 221 212 207 207 206 202 201 202 205 204 200 198 193 189 187 188 192 195 194 198 198 198 195 194 194 197 200 201 202 203 208 217 211 218 236 250 254 234
321 307 289 264 244 229 218 210 211 211 205 203 205 208 205 202 201 199 192 192 192 193 192 194 197 198 195 193 193 194 196 199 201 206 205 206 211 209 211 220 232 249 241
337 327 314 289 263 243 228 217 214 216 208 207 206 208 206 203 202 200 197 196 194 190 191 192 195 196 194 192 190 195 195 196 201 204 205 205 204 206 210 215 219 237 260
335 333 325 310 285 259 244 230 221 220 214 211 210 208 207 205 202 201 199 196 193 190 189 190 192 193 193 192 192 194 196 195 199 200 200 202 200 199 199 204 212 225 242
332 329 326 315 299 274 253 239 228 224 217 214 214 209 208 206 203 203 201 197 194 191 191 190 190 190 192 192 193 195 193 196 196 195 199 200 198 194 193 194 201 211 221
330 328 328 322 308 292 271 253 236 227 220 217 217 212 207 205 205 204 202 197 194 192 190 188 188 189 190 192 194 194 194 195 196 194 195 199 193 195 194 191 197 204 208
330 330 327 321 313 294 278 266 251 237 224 219 220 214 206 204 205 205 201 196 193 191 189 187 188 188 189 190 194 194 194 196 196 193 194 195 191 195 192 190 193 195 194
327 328 322 320 315 303 285 274 265 252 233 220 219 214 208 205 204 203 201 195 191 189 188 188 188 187 187 188 189 191 192 192 192 192 192 192 192 194 189 188 189 181 176
319 323 320 318 316 308 296 283 275 262 243 224 220 215 210 204 201 201 198 193 190 188 186 185 186 185 185 187 185 185 187 186 184 185 187 187 185 186 180 174 176 173 168
312 315 316 315 312 308 298 291 283 269 249 229 222 214 206 201 198 197 194 190 188 186 184 185 185 186 186 179 178 178 180 181 180 178 176 171 171 168 161 158 158 162 167
309 309 308 307 308 306 298 287 279 272 251 235 222 209 204 202 194 191 191 188 186 184 184 184 183 186 183 173 173 172 174 176 177 175 169 162 162 163 160 152 143 140 136
306 306 305 306 305 302 297 288 280 267 245 232 220 208 202 200 192 189 189 188 184 182 182 183 183 182 177 169 170 166 172 172 173 173 169 164 162 162 157 149 144 139 132
303 302 301 300 299 299 298 289 283 274 252 234 218 209 205 199 192 190 187 185 181 180 180 181 180 179 173 168 167 163 169 164 164 164 165 162 160 157 153 147 142 133 119
305 304 300 297 295 299 298 287 282 274 258 244 225 212 206 200 195 192 187 181 178 176 172 174 178 176 172 167 165 164 164 160 155 154 157 160 158 156 156 155 150 147 143
306 306 300 294 293 295 293 286 282 277 267 251 232 217 206 200 195 190 183 175 171 167 166 165 170 172 169 165 165 166 165 161 156 155 157 158 156 155 157 154 152 150 145
308 309 302 294 292 291 287 283 283 287 279 249 232 217 206 194 185 180 177 171 166 165 164 159 159 161 160 163 168 167 165 158 155 157 155 151 153 153 153 147 139 139 137
306 307 302 296 291 288 281 280 286 290 282 255 231 214 203 189 178 175 173 170 169 166 164 162 160 156 153 158 162 162 159 153 147 145 146 145 148 147 145 138 140 141 137
305 307 305 296 293 291 283 278 284 285 265 248 226 206 192 182 179 174 174 173 174 170 166 164 161 156 155 156 156 155 151 144 134 131 135 137 138 132 132 138 140 134 137
302 302 299 294 291 290 285 282 281 279 261 240 220 207 194 181 174 173 180 182 186 179 172 170 165 164 168 168 160 155 155 152 145 135 131 136 140 139 137 135 132 132 138
300 300 299 296 294 290 285 282 275 267 252 233 216 206 194 182 166 154 133 123 157 155 163 165 162 158 152 151 153 152 148 145 144 138 144 150 152 153 151 151 147 147 150